Location: Angwan Shehu
(11.2514°N, 7.4613°E)
Time: 10:03:16
(UTC+00:00)

Skynet4D Del rocket - Pass Details

Date: 14 November 2019
Orbit: 763 x 1291 km, 26.9° (Epoch: 14 December)

Event Time Altitude Azimuth Distance (km) Brightness Sun altitude
Rises 17:24:37 0° 298° (WNW) 3,541 7.7 -5.9°
Reaches altitude 10° 17:27:22 10° 301° (WNW) 2,522 6.8 -6.5°
Maximum altitude 17:33:17 71° 25° (NNE) 851 3.6 -7.9°
Drops below altitude 10° 17:38:41 10° 109° (ESE) 2,304 5.5 -9.1°
Enters shadow 17:39:49 - 110° (ESE) 2,729 5.9 -9.4°
